FW6949 Weather Reports


time (UTC)temp
C
wind
direction
speed
KPH
gust
KPH
rain 1hr
cm
rain 24hr
cm
rain mn
cm
humidity
%
barometer
mb
20260506155743 14 133 1.6 1.6 0.00 0.00 0.00 84 4241.6
20260506155239 14 90 1.6 1.6 0.00 0.00 0.00 84 4241.8
20260506153346 15 56 1.6 3.2 0.00 0.00 0.00 83 4241.2
20260506152843 15 120 0.0 1.6 0.00 0.00 0.00 83 4240.9
20260506152340 15 55 1.6 3.2 0.00 0.00 0.00 83 4241.0
20260506151839 15 108 1.6 3.2 0.00 0.00 0.00 83 4241.1
20260506151335 15 76 1.6 1.6 0.00 0.00 0.00 83 4240.9
20260506150833 14 122 1.6 1.6 0.00 0.00 0.00 83 4241.1
20260506150329 14 98 3.2 3.2 0.00 0.00 0.00 82 4241.0
20260506145826 15 191 3.2 3.2 0.00 0.00 0.00 82 4240.9
20260506145322 15 113 3.2 3.2 0.00 0.00 0.00 81 4240.7
20260506144820 15 153 1.6 3.2 0.00 0.00 0.00 82 4240.5
20260506144316 15 112 1.6 1.6 0.00 0.00 0.00 82 4240.4
20260506143815 14 55 1.6 3.2 0.00 0.00 0.00 81 4240.6
20260506143312 15 94 3.2 3.2 0.00 0.00 0.00 81 4240.5
20260506142810 14 126 1.6 3.2 0.00 0.00 0.00 81 4240.2
20260506142307 15 97 1.6 3.2 0.00 0.00 0.00 82 4240.4
20260506141806 15 69 3.2 3.2 0.00 0.00 0.00 81 4240.3
20260506141303 14 117 3.2 3.2 0.00 0.00 0.00 81 4240.2
20260506140801 14 86 4.8 4.8 0.00 0.00 0.00 81 4240.3
20260506140257 15 84 4.8 4.8 0.00 0.00 0.00 81 4240.0
20260506135755 15 101 0.0 1.6 0.00 0.00 0.00 81 4239.7
20260506135251 15 121 1.6 1.6 0.00 0.00 0.00 81 4240.1
20260506134748 15 90 0.0 0.0 0.00 0.00 0.00 81 4240.1
20260506134244 15 92 1.6 3.2 0.00 0.00 0.00 81 4240.0
20260506133741 15 103 0.0 0.0 0.00 0.00 0.00 80 4239.7
20260506133238 14 117 1.6 1.6 0.00 0.00 0.00 80 4239.9
20260506132735 15 108 1.6 1.6 0.00 0.00 0.00 80 4239.8
20260506132232 15 128 1.6 1.6 0.00 0.00 0.00 80 4240.1
20260506131730 15 98 3.2 3.2 0.00 0.00 0.00 79 4240.0
20260506131226 15 128 1.6 1.6 0.00 0.00 0.00 79 4239.8
20260506130723 15 108 1.6 1.6 0.00 0.00 0.00 79 4239.7
20260506130220 15 119 3.2 3.2 0.00 0.00 0.00 78 4239.9
20260506125718 15 141 0.0 1.6 0.00 0.00 0.00 78 4239.6
20260506125215 15 67 3.2 4.8 0.00 0.00 0.00 78 4239.5
20260506124713 15 94 0.0 1.6 0.00 0.00 0.00 78 4239.7
20260506124211 15 133 1.6 1.6 0.00 0.00 0.00 78 4239.5
20260506123708 15 123 1.6 1.6 0.00 0.00 0.00 78 4239.2
20260506123207 15 105 1.6 3.2 0.00 0.00 0.00 79 4239.1
20260506122703 15 65 0.0 0.0 0.00 0.00 0.00 80 4238.8
20260506122201 15 157 1.6 1.6 0.00 0.00 0.00 79 4238.9
20260506121658 15 128 1.6 1.6 0.00 0.00 0.00 80 4239.1
20260506121154 15 126 3.2 3.2 0.00 0.00 0.00 80 4238.7
20260506120652 15 84 1.6 3.2 0.00 0.00 0.00 80 4238.7
20260506120149 15 131 0.0 1.6 0.00 0.00 0.00 80 4238.5
20260506115648 15 122 1.6 1.6 0.00 0.00 0.00 81 4238.3
20260506115146 15 133 0.0 1.6 0.00 0.00 0.00 81 4238.3
20260506114643 15 128 0.0 0.0 0.00 0.00 0.00 81 4238.2
20260506114141 15 140 0.0 0.0 0.00 0.00 0.00 82 4238.2
20260506113639 15 99 1.6 1.6 0.00 0.00 0.00 82 4238.2
20260506113136 15 125 1.6 1.6 0.00 0.00 0.00 82 4237.9
20260506112632 16 123 1.6 1.6 0.00 0.00 0.00 82 4237.9
20260506112130 16 144 0.0 1.6 0.00 0.00 0.00 81 4237.7
20260506111627 16 128 0.0 1.6 0.00 0.00 0.00 79 4237.6
20260506111125 16 108 3.2 3.2 0.00 0.00 0.00 78 4237.6
20260506110622 16 116 0.0 1.6 0.00 0.00 0.00 78 4237.6
20260506110119 16 137 0.0 1.6 0.00 0.00 0.00 78 4237.4
20260506105616 16 101 0.0 1.6 0.00 0.00 0.00 77 4237.4
20260506105113 16 129 0.0 0.0 0.00 0.00 0.00 77 4237.3
20260506104611 16 101 0.0 1.6 0.00 0.00 0.00 77 4237.4
20260506104108 16 101 1.6 1.6 0.00 0.00 0.00 77 4237.1
20260506103605 17 96 1.6 1.6 0.00 0.00 0.00 77 4237.0
20260506103102 16 120 0.0 0.0 0.00 0.00 0.00 77 4237.0
20260506102600 16 127 0.0 0.0 0.00 0.00 0.00 77 4237.0
20260506102057 16 138 0.0 1.6 0.00 0.00 0.00 77 4237.3
20260506101554 16 56 0.0 1.6 0.00 0.00 0.00 78 4237.1
20260506101051 16 102 0.0 1.6 0.00 0.00 0.00 77 4237.2
20260506100549 16 103 1.6 1.6 0.00 0.00 0.00 77 4237.0
20260506100047 17 71 1.6 3.2 0.00 0.00 0.00 77 4237.0
20260506095545 17 111 1.6 1.6 0.00 0.00 0.00 77 4237.1
20260506095041 17 113 0.0 1.6 0.00 0.00 0.00 77 4236.7
20260506094539 17 107 0.0 0.0 0.00 0.00 0.00 77 4236.5
20260506094037 17 141 0.0 0.0 0.00 0.00 0.00 76 4236.7
20260506093535 17 95 3.2 3.2 0.00 0.00 0.00 75 4236.7
20260506093032 17 209 1.6 1.6 0.00 0.00 0.00 75 4236.6
20260506092530 17 131 0.0 0.0 0.00 0.00 0.00 75 4236.7
20260506092026 17 128 1.6 1.6 0.00 0.00 0.00 75 4236.5
20260506091525 17 117 0.0 1.6 0.00 0.00 0.00 74 4236.6
20260506091022 17 127 1.6 1.6 0.00 0.00 0.00 74 4236.6
20260506090519 17 72 1.6 1.6 0.00 0.00 0.00 74 4236.8
20260506090015 18 121 0.0 0.0 0.00 0.00 0.00 73 4236.7
20260506085513 18 118 1.6 1.6 0.00 0.00 0.00 73 4236.3
20260506085009 18 75 1.6 4.8 0.00 0.00 0.00 73 4236.6
20260506084506 18 105 3.2 3.2 0.00 0.00 0.00 73 4236.5
20260506084002 18 120 3.2 3.2 0.00 0.00 0.00 73 4236.7
20260506083500 18 150 1.6 1.6 0.00 0.00 0.00 73 4236.4
20260506082956 18 246 3.2 3.2 0.00 0.00 0.00 73 4236.1
20260506082454 18 89 1.6 3.2 0.00 0.00 0.00 73 4236.2
20260506081949 18 96 3.2 3.2 0.00 0.00 0.00 73 4236.2
20260506081448 18 121 1.6 1.6 0.00 0.00 0.00 73 4236.3
20260506080945 19 130 1.6 3.2 0.00 0.00 0.00 73 4236.1
20260506080442 19 120 1.6 1.6 0.00 0.00 0.00 74 4236.3
20260506073426 21 64 1.6 3.2 0.00 0.00 0.00 74 4236.0
20260506072923 21 128 1.6 1.6 0.00 0.00 0.00 74 4236.0
20260506072420 21 84 4.8 4.8 0.00 0.00 0.00 74 4235.7
20260506071918 21 137 1.6 1.6 0.00 0.00 0.00 74 4235.5
20260506071416 21 105 1.6 1.6 0.00 0.00 0.00 74 4235.5
20260506070912 22 105 3.2 3.2 0.00 0.00 0.00 74 4235.3
20260506070409 22 92 0.0 0.0 0.00 0.00 0.00 74 4235.7
20260506062346 25 152 0.0 0.0 0.00 0.00 0.00 79 4235.2
20260506061842 25 174 1.6 1.6 0.00 0.00 0.00 79 4235.2
20260506061339 25 160 0.0 0.0 0.00 0.00 0.00 79 4235.2
20260506060837 25 150 1.6 1.6 0.00 0.00 0.00 79 4235.2
20260506060335 25 152 1.6 1.6 0.00 0.00 0.00 79 4235.4
20260506051307 25 159 0.0 1.6 0.00 0.00 0.00 80 4236.0
20260506050804 25 152 0.0 0.0 0.00 0.00 0.00 80 4235.7
20260506050302 25 147 0.0 1.6 0.00 0.00 0.00 79 4235.5
20260506044752 25 170 1.6 1.6 0.00 0.00 0.00 78 4235.1
20260506044249 25 170 1.6 1.6 0.00 0.00 0.00 78 4235.0
20260506043747 25 150 0.0 0.0 0.00 0.00 0.00 78 4235.1
20260506043244 25 146 0.0 0.0 0.00 0.00 0.00 78 4235.2
20260506042743 25 156 1.6 1.6 0.00 0.00 0.00 78 4235.0
20260506042241 25 146 0.0 0.0 0.00 0.00 0.00 78 4235.2
20260506041739 25 152 0.0 0.0 0.00 0.00 0.00 78 4235.0
20260506041236 25 158 0.0 1.6 0.00 0.00 0.00 78 4234.9
20260506040733 25 142 0.0 0.0 0.00 0.00 0.00 78 4234.8
20260506040230 25 153 0.0 0.0 0.00 0.00 0.00 77 4234.7
20260506035727 25 156 1.6 1.6 0.00 0.00 0.00 77 4234.6
20260506035224 25 145 1.6 1.6 0.00 0.00 0.00 77 4234.7
20260506034721 25 143 1.6 1.6 0.00 0.00 0.00 77 4234.5
20260506034218 25 180 1.6 1.6 0.00 0.00 0.00 77 4234.4
20260506033715 25 175 1.6 1.6 0.00 0.00 0.00 77 4234.2
20260506033212 25 148 0.0 1.6 0.00 0.00 0.00 77 4234.1
20260506032709 25 137 0.0 0.0 0.00 0.00 0.00 77 4234.0
20260506032206 25 147 0.0 0.0 0.00 0.00 0.00 77 4233.7
20260506031702 25 150 0.0 0.0 0.00 0.00 0.00 77 4233.7
20260506031200 25 172 0.0 0.0 0.00 0.00 0.00 77 4233.6
20260506030658 25 148 0.0 0.0 0.00 0.00 0.00 77 4233.6
20260506030155 25 151 0.0 0.0 0.00 0.00 0.00 77 4233.6
20260506025652 25 170 0.0 0.0 0.00 0.00 0.00 77 4233.8
20260506025148 25 134 0.0 0.0 0.00 0.00 0.00 77 4233.5
20260506024646 26 145 1.6 1.6 0.00 0.00 0.00 76 4233.6
20260506024142 26 148 0.0 1.6 0.00 0.00 0.00 76 4233.3
20260506023638 26 162 1.6 1.6 0.00 0.00 0.00 76 4233.4
20260506023135 26 156 0.0 0.0 0.00 0.00 0.00 76 4233.3
20260506022633 26 150 0.0 0.0 0.00 0.00 0.00 76 4233.3
20260506022130 26 167 1.6 1.6 0.00 0.00 0.00 76 4233.5
20260506021627 26 169 0.0 1.6 0.00 0.00 0.00 76 4233.0
20260506021125 26 158 1.6 1.6 0.00 0.00 0.00 76 4232.9
20260506020622 26 159 1.6 1.6 0.00 0.00 0.00 76 4233.2
20260506020119 25 137 0.0 1.6 0.00 0.00 0.00 77 4233.2
20260506015617 25 159 1.6 1.6 0.00 0.00 0.00 77 4233.4
20260506015114 26 178 1.6 1.6 0.00 0.00 0.00 77 4233.4
20260506014611 25 157 0.0 1.6 0.00 0.00 0.00 77 4233.6
20260506014106 26 141 0.0 0.0 0.00 0.00 0.00 76 4233.7
20260506013605 26 140 0.0 0.0 0.00 0.00 0.00 75 4233.8
20260506013102 26 141 0.0 0.0 0.00 0.00 0.00 74 4233.4
20260506012558 26 134 0.0 0.0 0.00 0.00 0.00 73 4233.3
20260506012054 26 148 0.0 0.0 0.00 0.00 0.00 73 4233.3
20260506011552 27 152 0.0 0.0 0.00 0.00 0.00 72 4233.0
20260506011048 27 145 0.0 1.6 0.00 0.00 0.00 71 4233.0
20260506010548 27 144 0.0 0.0 0.00 0.00 0.00 71 4233.1
20260506010044 27 129 0.0 1.6 0.00 0.00 0.00 70 4233.1
20260506005541 27 169 1.6 1.6 0.00 0.00 0.00 70 4233.0
20260506005037 27 160 1.6 1.6 0.00 0.00 0.00 70 4233.1
20260506004535 27 170 1.6 1.6 0.00 0.00 0.00 69 4232.9
20260506004031 27 167 0.0 1.6 0.00 0.00 0.00 68 4233.0
20260506003528 27 144 0.0 0.0 0.00 0.00 0.00 68 4232.7
20260506003023 28 189 1.6 1.6 0.00 0.00 0.00 67 4232.8
20260506002520 27 148 0.0 1.6 0.00 0.00 0.00 67 4232.6
20260506002015 27 161 1.6 1.6 0.00 0.00 0.00 68 4232.7
20260506001512 28 174 0.0 1.6 0.00 0.00 0.00 68 4232.9
20260506001010 28 154 1.6 1.6 0.00 0.00 0.00 67 4232.6
20260506000507 28 127 0.0 1.6 0.00 0.00 0.00 66 4232.7
20260506000004 28 173 0.0 1.6 0.00 0.00 0.00 66 4232.6
20260505235502 28 152 0.0 0.0 0.00 0.00 0.00 66 4232.6
20260505234958 28 205 1.6 1.6 0.00 0.00 0.00 65 4232.8
20260505234456 28 64 1.6 1.6 0.00 0.00 0.00 65 4232.6
20260505233952 28 171 1.6 1.6 0.00 0.00 0.00 65 4232.3
20260505233450 28 166 1.6 1.6 0.00 0.00 0.00 65 4232.3
20260505232947 28 150 0.0 0.0 0.00 0.00 0.00 64 4232.4
20260505232445 28 177 3.2 3.2 0.00 0.00 0.00 64 4232.4
20260505231942 28 156 1.6 1.6 0.00 0.00 0.00 64 4232.6
20260505231439 28 216 1.6 3.2 0.00 0.00 0.00 64 4232.3
20260505230937 28 178 1.6 1.6 0.00 0.00 0.00 64 4232.3
20260505230435 28 150 0.0 1.6 0.00 0.00 0.00 64 4232.5
20260505225931 28 146 0.0 1.6 0.00 0.00 0.00 63 4232.1
20260505225428 28 246 3.2 4.8 0.00 0.00 0.00 62 4232.2
20260505224924 28 149 3.2 3.2 0.00 0.00 0.00 63 4232.3
20260505224421 28 199 3.2 4.8 0.00 0.00 0.00 63 4232.2
20260505223918 28 152 1.6 1.6 0.00 0.00 0.00 62 4232.2
20260505223415 29 201 1.6 3.2 0.00 0.00 0.00 60 4232.2
20260505222911 30 142 1.6 1.6 0.00 0.00 0.00 61 4232.2
20260505222408 30 190 1.6 1.6 0.00 0.00 0.00 60 4232.3
20260505221904 30 167 1.6 3.2 0.00 0.00 0.00 60 4232.1
20260505221401 30 209 1.6 1.6 0.00 0.00 0.00 58 4232.3
20260505220858 30 187 3.2 3.2 0.00 0.00 0.00 57 4232.1
20260505220355 31 70 1.6 3.2 0.00 0.00 0.00 57 4231.9
20260505215853 31 211 4.8 8.0 0.00 0.00 0.00 57 4231.7
20260505215351 31 135 1.6 1.6 0.00 0.00 0.00 59 4232.1
20260505214848 31 139 1.6 1.6 0.00 0.00 0.00 56 4232.1
20260505214346 31 128 4.8 4.8 0.00 0.00 0.00 54 4232.2
20260505213843 30 147 0.0 1.6 0.00 0.00 0.00 57 4232.4
20260505213341 30 255 3.2 3.2 0.00 0.00 0.00 59 4232.1
20260505212836 30 176 1.6 3.2 0.00 0.00 0.00 59 4232.0
20260505212334 31 226 3.2 3.2 0.00 0.00 0.00 57 4232.3
20260505211830 31 226 4.8 4.8 0.00 0.00 0.00 56 4232.2
20260505211328 32 155 1.6 1.6 0.00 0.00 0.00 53 4232.2
20260505210824 32 226 4.8 8.0 0.00 0.00 0.00 53 4232.3
20260505210321 31 165 3.2 4.8 0.00 0.00 0.00 55 4232.4
20260505205818 32 192 3.2 3.2 0.00 0.00 0.00 55 4232.4
20260505205316 32 141 4.8 4.8 0.00 0.00 0.00 55 4232.7
20260505204812 31 175 1.6 3.2 0.00 0.00 0.00 56 4232.8
20260505204311 31 150 1.6 1.6 0.00 0.00 0.00 58 4232.7
20260505203807 30 213 4.8 4.8 0.00 0.00 0.00 58 4232.6
20260505203304 30 3 4.8 8.0 0.00 0.00 0.00 58 4232.6
20260505202800 30 223 6.4 9.7 0.00 0.00 0.00 58 4232.5
20260505202256 30 166 1.6 1.6 0.00 0.00 0.00 60 4232.4
20260505201753 29 206 4.8 4.8 0.00 0.00 0.00 60 4232.7
20260505201251 30 207 3.2 4.8 0.00 0.00 0.00 60 4232.6
20260505200749 30 154 0.0 1.6 0.00 0.00 0.00 60 4232.7
20260505200246 30 116 4.8 8.0 0.00 0.00 0.00 60 4232.7
20260505195741 29 176 1.6 1.6 0.00 0.00 0.00 62 4233.2
20260505195239 29 178 3.2 3.2 0.00 0.00 0.00 62 4233.0
20260505194736 28 230 4.8 8.0 0.00 0.00 0.00 63 4233.2
20260505194232 29 179 1.6 3.2 0.00 0.00 0.00 63 4233.2
20260505193728 29 96 4.8 4.8 0.00 0.00 0.00 62 4233.1
20260505193226 28 185 3.2 4.8 0.00 0.00 0.00 63 4233.3
20260505192724 29 216 3.2 4.8 0.00 0.00 0.00 62 4233.0
20260505192221 29 176 1.6 1.6 0.00 0.00 0.00 62 4233.0
20260505191719 29 262 4.8 4.8 0.00 0.00 0.00 62 4233.3
20260505191218 29 179 4.8 4.8 0.00 0.00 0.00 63 4233.2
20260505190714 29 120 1.6 1.6 0.00 0.00 0.00 61 4233.0
20260505190213 28 245 3.2 3.2 0.00 0.00 0.00 62 4233.1
20260505185710 29 150 3.2 3.2 0.00 0.00 0.00 61 4233.3
20260505185207 28 208 3.2 3.2 0.00 0.00 0.00 62 4233.1
20260505184703 28 249 4.8 4.8 0.00 0.00 0.00 61 4233.3
20260505184200 29 175 1.6 1.6 0.00 0.00 0.00 61 4233.2
20260505183657 28 166 4.8 8.0 0.00 0.00 0.00 62 4233.5
20260505183155 28 186 4.8 8.0 0.00 0.00 0.00 62 4233.7
20260505182650 28 177 3.2 3.2 0.00 0.00 0.00 62 4233.6
20260505182148 28 240 4.8 8.0 0.00 0.00 0.00 63 4233.4
20260505181644 28 206 1.6 1.6 0.00 0.00 0.00 64 4233.7
20260505181142 28 166 1.6 1.6 0.00 0.00 0.00 61 4233.7
20260505180638 28 206 1.6 1.6 0.00 0.00 0.00 63 4233.8
20260505180135 28 126 3.2 4.8 0.00 0.00 0.00 63 4233.9
20260505175631 28 218 4.8 4.8 0.00 0.00 0.00 63 4233.9
20260505175127 28 196 3.2 3.2 0.00 0.00 0.00 64 4233.8
20260505174624 27 213 4.8 8.0 0.00 0.00 0.00 66 4233.8
20260505174120 27 230 4.8 4.8 0.00 0.00 0.00 64 4234.0
20260505173617 27 203 3.2 4.8 0.00 0.00 0.00 66 4233.9
20260505173114 27 125 4.8 4.8 0.00 0.00 0.00 66 4233.9
20260505172612 27 188 6.4 8.0 0.00 0.00 0.00 66 4233.8
20260505172109 26 196 3.2 3.2 0.00 0.00 0.00 67 4233.9
20260505171608 26 237 6.4 8.0 0.00 0.00 0.00 69 4233.9
20260505171106 26 248 4.8 8.0 0.00 0.00 0.00 68 4233.8
20260505170603 26 179 3.2 3.2 0.00 0.00 0.00 68 4233.9
20260505170059 26 135 4.8 8.0 0.00 0.00 0.00 68 4234.0
20260505165554 26 202 4.8 8.0 0.00 0.00 0.00 69 4233.8
20260505165050 26 132 3.2 4.8 0.00 0.00 0.00 69 4233.8
20260505164546 25 248 3.2 3.2 0.00 0.00 0.00 70 4233.6
20260505164044 25 216 3.2 3.2 0.00 0.00 0.00 71 4233.8
20260505163543 25 261 1.6 3.2 0.00 0.00 0.00 72 4233.8
20260505163039 25 192 3.2 4.8 0.00 0.00 0.00 72 4233.9
20260505162538 25 192 1.6 1.6 0.00 0.00 0.00 72 4233.9
20260505162035 25 183 3.2 3.2 0.00 0.00 0.00 72 4234.1
20260505161532 25 219 3.2 4.8 0.00 0.00 0.00 72 4234.1
20260505161029 25 138 4.8 8.0 0.00 0.00 0.00 73 4234.1
20260505160527 24 159 1.6 1.6 0.00 0.00 0.00 72 4233.9